Welcome to Crazy Orc, l'antre du jeu de rôles à Lyon. Please login or sign up.

10 Décembre 2023 à 02:46:31

Login with username, password and session length

Crazy Orc, l'antre du jeu de rôles à Lyon - Centre de statistiques

Statistiques générales

Total des membres:
738
Total des messages:
98063
Total des sujets:
4257
Total des catégories:
4
Membres en ligne:
62
Connexions simultanées:
808 - 21 Janvier 2020 à 20:55:59
En ligne aujourd'hui:
35
Total des pages vues:
38318854
Moyenne des inscriptions par jour:
0.26
Moyenne des messages par jour:
23.18
Moyenne des sujets par jour:
1.06
Total des sections:
40
Dernier membre:
Omega
Moyenne d'utilisateurs connectés par jour:
51.33
Statistiques des sexes:
Ne pas afficher: 344
Masculin: 331
Féminin: 63
Pages vues en moyenne par jour:
6259.21

Top 10 des posteurs

ManuDevil
7022
GroumpH
5098
nunch
3857
LeDupontesque
3081
jules
3026
Mandy
2883
Scratchy
2766
MAO
2493
snake
1947
Le0
1878

Top lanceurs de sujets

nunch
600
Morithil
418
ManuDevil
292
GroumpH
246
Scratchy
132
MAO
110
LeDupontesque
106
jules
99
snake
92
CCCP
86

Le plus de temps en ligne

Mandy
133 j 19 h 59 m
GroumpH
112 j 9 h 16 m
CCCP
88 j 10 h 46 m
Nukeflow
73 j 8 h 19 m
ManuDevil
69 j 4 h 38 m
Felipe
61 j 12 h 19 m
dao
56 j 17 h 58 m
nunch
49 j 1 h 47 m
Rh
42 j 23 h 32 m
Patate
42 j 22 h 27 m

Les utilisateurs les plus aimés

ManuDevil
64
Arkana31
49
LeDupontesque
20
Morithil
19
DeReel (il)
16
Patate
14
MJulien
12
Lionhell
9
Lightblaste
8
LokiTolmuir
7

Historique du forum (basé sur l'heure interne du forum)

Résumé annuel Nouveaux sujets Nouveaux messages Nouveaux membres Connexions simultanées Pages vues
* 2023 182 1195 122 260 4286329
Décembre 2023 6 25 0 260 414788
Novembre 2023 12 123 14 217 909538
Octobre 2023 21 141 12 187 333148
Septembre 2023 19 182 18 138 366302
Août 2023 8 42 7 130 236673
Juillet 2023 6 39 4 140 269774
Juin 2023 23 109 10 159 303581
Mai 2023 23 124 16 182 262587
Avril 2023 19 159 11 174 284480
Mars 2023 13 86 6 155 330966
Février 2023 13 62 5 165 274947
Janvier 2023 19 103 19 148 299545
* 2022 183 1154 96 261 3778792
Décembre 2022 9 37 1 161 306381
Novembre 2022 16 103 6 261 350274
2022-11-01 0 3 0 148 14260
2022-11-02 0 3 0 132 22046
2022-11-03 0 8 0 80 6888
2022-11-04 2 6 2 91 6568
2022-11-05 6 8 0 109 6769
2022-11-06 0 1 0 114 5687
2022-11-07 0 7 0 114 8498
2022-11-08 0 6 0 134 17687
2022-11-09 0 0 0 150 30355
2022-11-10 0 3 0 150 9759
2022-11-11 0 6 0 261 16567
2022-11-12 0 4 1 191 9994
2022-11-13 1 4 0 106 6541
2022-11-14 0 3 0 71 5798
2022-11-15 0 0 0 58 4130
2022-11-16 0 0 0 45 2987
2022-11-17 0 0 0 39 3211
2022-11-18 0 2 0 60 3945
2022-11-19 0 1 0 49 7707
2022-11-20 5 10 1 79 16954
2022-11-21 0 4 0 81 33709
2022-11-22 1 2 0 120 13629
2022-11-23 0 4 0 118 13870
2022-11-24 0 4 0 112 13751
2022-11-25 0 4 0 139 12240
2022-11-26 0 3 0 139 12770
2022-11-27 0 1 0 68 11737
2022-11-28 0 3 0 70 11052
2022-11-29 0 2 0 75 11339
2022-11-30 1 1 2 66 9826
Octobre 2022 11 120 17 208 290108
2022-10-01 0 0 0 46 10196
2022-10-02 0 2 0 45 6099
2022-10-03 0 6 2 63 9412
2022-10-04 1 5 1 114 7925
2022-10-05 0 2 0 119 10788
2022-10-06 0 2 0 135 8531
2022-10-07 0 5 1 86 8823
2022-10-08 0 2 1 99 11829
2022-10-09 0 0 0 117 10515
2022-10-10 0 0 0 132 13266
2022-10-11 0 7 1 144 10128
2022-10-12 1 9 1 208 15786
2022-10-13 1 5 1 182 15119
2022-10-14 2 2 0 147 13116
2022-10-15 1 8 1 192 17135
2022-10-16 0 0 2 155 8626
2022-10-17 2 5 0 105 7879
2022-10-18 0 0 0 58 5903
2022-10-19 0 2 0 64 7645
2022-10-20 0 10 1 106 4198
2022-10-21 0 4 1 56 4202
2022-10-22 0 2 0 122 10015
2022-10-23 0 2 0 96 8013
2022-10-24 0 2 1 77 6882
2022-10-25 1 12 1 96 8317
2022-10-26 2 7 1 110 6687
2022-10-27 0 5 0 51 5051
2022-10-28 0 2 0 69 7681
2022-10-29 0 5 0 68 11986
2022-10-30 0 3 0 65 8226
2022-10-31 0 4 1 131 10129
Septembre 2022 17 115 6 258 357415
2022-09-01 0 0 0 128 16661
2022-09-02 0 0 0 121 10578
2022-09-03 0 4 0 109 9553
2022-09-04 1 11 1 86 11208
2022-09-05 0 4 0 82 15189
2022-09-06 0 2 0 79 11992
2022-09-07 0 11 0 90 7293
2022-09-08 4 5 0 83 12257
2022-09-09 0 3 1 82 24589
2022-09-10 1 4 0 79 10685
2022-09-11 0 5 0 98 9991
2022-09-12 0 0 0 83 10009
2022-09-13 0 6 0 87 10925
2022-09-14 0 1 0 104 13455
2022-09-15 0 2 0 106 14043
2022-09-16 0 2 0 93 8130
2022-09-17 0 7 0 71 8485
2022-09-18 3 9 0 42 7202
2022-09-19 0 3 0 42 7737
2022-09-20 0 1 0 54 7899
2022-09-21 0 3 0 97 9162
2022-09-22 0 2 0 59 7878
2022-09-23 1 9 1 109 11811
2022-09-24 1 5 2 40 8832
2022-09-25 1 2 0 258 12849
2022-09-26 0 1 0 115 13354
2022-09-27 0 0 0 119 15370
2022-09-28 5 11 1 164 29200
2022-09-29 0 0 0 52 10432
2022-09-30 0 2 0 49 10646
Août 2022 15 108 9 147 318817
Juillet 2022 13 69 4 208 308045
Juin 2022 14 76 4 62 333112
2022-06-01 0 0 0 55 10341
2022-06-02 0 2 0 45 8295
2022-06-03 0 4 0 46 10976
2022-06-04 0 5 1 46 7086
2022-06-05 2 5 0 44 11765
2022-06-06 2 4 0 46 12530
2022-06-07 0 5 0 53 7853
2022-06-08 1 2 0 54 12848
2022-06-09 0 1 1 49 12757
2022-06-10 0 1 0 57 14855
2022-06-11 0 1 0 52 13230
2022-06-12 0 0 0 49 10232
2022-06-13 2 5 0 52 11255
2022-06-14 0 3 0 62 9963
2022-06-15 0 2 1 50 10794
2022-06-16 0 1 0 48 11647
2022-06-17 0 1 0 58 10367
2022-06-18 0 1 0 53 9995
2022-06-19 0 0 0 45 7787
2022-06-20 0 4 0 42 6688
2022-06-21 0 0 0 48 12592
2022-06-22 0 0 0 40 12805
2022-06-23 0 1 0 35 8798
2022-06-24 0 1 0 52 22323
2022-06-25 0 4 0 44 8725
2022-06-26 0 2 0 43 12350
2022-06-27 7 13 1 50 11399
2022-06-28 0 7 0 51 11591
2022-06-29 0 1 0 42 12634
2022-06-30 0 0 0 44 8631
Mai 2022 16 118 8 91 339244
Avril 2022 18 133 12 61 254691
Mars 2022 15 123 8 65 281935
Février 2022 17 84 9 58 314588
2022-02-01 1 3 0 44 7006
2022-02-02 0 2 0 47 7466
2022-02-03 3 6 1 43 9692
2022-02-04 0 0 0 43 8105
2022-02-05 1 4 1 43 5673
2022-02-06 0 3 0 52 6200
2022-02-07 0 0 1 42 6001
2022-02-08 1 2 0 46 12159
2022-02-09 1 5 2 39 14039
2022-02-10 0 0 0 58 14006
2022-02-11 0 1 1 40 11616
2022-02-12 0 0 0 50 14000
2022-02-13 0 1 0 47 6670
2022-02-14 3 3 0 47 14159
2022-02-15 0 4 0 45 22511
2022-02-16 1 7 0 48 48711
2022-02-17 0 2 1 39 7849
2022-02-18 0 1 0 46 11058
2022-02-19 0 3 0 56 12386
2022-02-20 0 3 0 44 8624
2022-02-21 0 4 0 53 7136
2022-02-22 0 0 0 42 6346
2022-02-23 0 1 0 44 8801
2022-02-24 0 5 1 51 9114
2022-02-25 1 5 0 50 10835
2022-02-26 0 6 0 56 9748
2022-02-27 1 2 1 46 7591
2022-02-28 4 11 0 49 7086
Janvier 2022 22 68 12 70 324182
* 2021 129 756 53 338 4376522
Décembre 2021 8 37 0 129 661064
2021-12-01 0 1 0 86 10724
2021-12-02 0 6 0 91 7815
2021-12-03 0 0 0 93 7911
2021-12-04 0 5 0 92 10027
2021-12-05 2 2 0 86 10097
2021-12-06 0 0 0 129 7479
2021-12-07 0 0 0 101 8162
2021-12-08 0 2 0 42 6778
2021-12-09 0 0 0 40 7532
2021-12-10 4 6 0 55 7151
2021-12-11 0 1 0 42 9757
2021-12-12 0 0 0 53 12585
2021-12-13 0 2 0 48 10751
2021-12-14 0 0 0 40 13058
2021-12-15 0 1 0 35 11053
2021-12-16 0 3 0 50 9613
2021-12-17 0 1 0 47 11104
2021-12-18 0 0 0 42 9597
2021-12-19 0 2 0 48 9257
2021-12-20 2 2 0 45 10553
2021-12-21 0 0 0 47 10988
2021-12-22 0 0 0 44 14554
2021-12-23 0 1 0 47 43880
2021-12-24 0 1 0 46 49317
2021-12-25 0 0 0 47 49735
2021-12-26 0 0 0 44 48100
2021-12-27 0 1 0 41 54117
2021-12-28 0 0 0 37 47893
2021-12-29 0 0 0 38 54768
2021-12-30 0 0 0 38 48213
2021-12-31 0 0 0 38 48495
Novembre 2021 13 99 4 153 262314
Octobre 2021 20 208 15 159 298103
Septembre 2021 24 171 10 280 285455
Août 2021 11 33 7 73 231609
Juillet 2021 6 8 2 81 305173
Juin 2021 17 31 2 135 311168
2021-06-01 6 7 0 65 11550
2021-06-02 0 0 0 77 12253
2021-06-03 0 1 0 103 12092
2021-06-04 0 0 0 93 8171
2021-06-05 0 0 0 104 7555
2021-06-06 0 0 0 95 7530
2021-06-07 0 0 0 79 8779
2021-06-08 1 3 0 79 10509
2021-06-09 0 1 0 90 8325
2021-06-10 0 0 0 88 8468
2021-06-11 0 0 0 93 9960
2021-06-12 0 1 0 92 10963
2021-06-13 1 1 1 86 7407
2021-06-14 0 0 0 105 6206
2021-06-15 0 0 0 82 32410
2021-06-16 4 6 0 83 12753
2021-06-17 0 0 0 96 11769
2021-06-18 0 2 0 101 7377
2021-06-19 0 1 0 135 12899
2021-06-20 0 0 0 131 10996
2021-06-21 3 4 1 131 11219
2021-06-22 0 0 0 101 8997
2021-06-23 0 1 0 93 7594
2021-06-24 0 0 0 103 9103
2021-06-25 0 0 0 80 9706
2021-06-26 0 0 0 79 9521
2021-06-27 0 0 0 84 11194
2021-06-28 0 0 0 75 8473
2021-06-29 2 2 0 83 8668
2021-06-30 0 1 0 71 8721
Mai 2021 3 31 4 268 597777
Avril 2021 10 51 6 287 308355
Mars 2021 7 24 1 308 444900
Février 2021 5 29 2 338 223056
Janvier 2021 5 34 0 322 447548
* 2020 206 1716 105 808 4713463
Décembre 2020 6 38 2 320 310487
Novembre 2020 12 97 3 352 464426
Octobre 2020 21 169 7 346 497422
Septembre 2020 30 356 15 133 325183
Août 2020 16 147 7 163 471897
Juillet 2020 16 77 2 100 345760
Juin 2020 17 60 5 127 452817
Mai 2020 7 22 3 295 321652
Avril 2020 10 47 1 189 300030
Mars 2020 24 253 3 199 467854
Février 2020 18 171 9 323 281798
2020-02-01 0 6 1 110 22857
2020-02-02 0 4 0 113 19748
2020-02-03 3 6 2 225 8437
2020-02-04 0 4 0 323 5481
2020-02-05 0 1 1 124 6151
2020-02-06 0 4 0 123 9304
2020-02-07 0 5 0 154 11432
2020-02-08 0 4 0 133 9152
2020-02-09 0 3 0 131 10284
2020-02-10 0 2 0 110 5432
2020-02-11 3 10 0 135 4471
2020-02-12 0 5 0 126 6869
2020-02-13 0 5 0 128 11009
2020-02-14 1 4 0 156 5546
2020-02-15 0 2 0 171 6296
2020-02-16 0 5 1 133 5755
2020-02-17 4 21 1 132 8743
2020-02-18 0 18 0 138 7508
2020-02-19 0 2 0 137 7400
2020-02-20 0 12 0 143 8914
2020-02-21 1 9 1 154 8884
2020-02-22 0 15 0 167 11618
2020-02-23 0 1 0 164 12863
2020-02-24 5 10 0 167 13726
2020-02-25 0 1 0 196 13396
2020-02-26 1 4 0 188 11554
2020-02-27 0 5 1 132 9231
2020-02-28 0 3 0 145 10882
2020-02-29 0 0 1 132 8855
Janvier 2020 29 279 48 808 474137
* 2019 246 3411 313 446 3308531
Décembre 2019 18 159 26 446 351248
2019-12-01 0 4 1 277 11373
2019-12-02 1 14 1 135 11534
2019-12-03 0 5 1 110 9010
2019-12-04 0 4 2 106 7741
2019-12-05 0 6 0 330 8461
2019-12-06 3 13 1 335 12098
2019-12-07 0 4 0 215 16251
2019-12-08 0 0 2 114 35635
2019-12-09 4 16 3 170 9809
2019-12-10 1 4 0 112 11124
2019-12-11 0 5 1 299 9463
2019-12-12 0 3 1 306 9544
2019-12-13 0 2 0 366 8347
2019-12-14 0 3 0 446 11186
2019-12-15 1 13 0 367 10258
2019-12-16 2 14 0 109 9322
2019-12-17 0 13 0 127 9034
2019-12-18 1 5 0 233 9507
2019-12-19 1 2 4 112 10126
2019-12-20 0 0 0 104 9567
2019-12-21 0 6 1 116 10009
2019-12-22 0 0 1 105 10019
2019-12-23 0 0 0 125 10592
2019-12-24 0 2 0 127 11029
2019-12-25 0 0 0 112 10531
2019-12-26 0 1 0 138 11502
2019-12-27 0 3 0 113 14168
2019-12-28 0 0 4 115 20305
2019-12-29 4 5 1 119 11114
2019-12-30 0 7 1 127 5225
2019-12-31 0 5 1 125 7364
Novembre 2019 16 245 33 325 524135
Octobre 2019 24 272 59 121 189762
Septembre 2019 25 386 54 141 376708
Août 2019 22 257 31 122 225760
Juillet 2019 24 281 62 149 190301
Juin 2019 11 171 3 112 246519
Mai 2019 23 311 10 167 218891
Avril 2019 21 294 9 174 311459
Mars 2019 22 372 16 142 344146
Février 2019 18 288 4 110 142132
Janvier 2019 22 375 6 113 187470
2019-01-01 1 15 2 48 3038
2019-01-02 1 15 0 46 2001
2019-01-03 0 6 0 21 1368
2019-01-04 1 11 0 45 1552
2019-01-05 0 6 0 53 3362
2019-01-06 0 8 0 63 4705
2019-01-07 0 9 0 55 12308
2019-01-08 2 13 0 53 18061
2019-01-09 1 10 1 113 10965
2019-01-10 1 29 1 113 14217
2019-01-11 0 13 0 109 30587
2019-01-12 0 7 0 109 8140
2019-01-13 1 10 0 107 5158
2019-01-14 4 31 0 103 4347
2019-01-15 1 10 0 105 3882
2019-01-16 1 13 0 111 3382
2019-01-17 1 18 1 80 2837
2019-01-18 0 8 0 101 2592
2019-01-19 0 12 1 113 3015
2019-01-20 0 16 0 100 2773
2019-01-21 1 13 0 104 3262
2019-01-22 0 4 0 103 2681
2019-01-23 0 18 0 100 2956
2019-01-24 0 14 0 103 4754
2019-01-25 1 3 0 104 2549
2019-01-26 4 22 0 106 3353
2019-01-27 0 4 0 102 3126
2019-01-28 0 7 0 108 3010
2019-01-29 0 8 0 102 5181
2019-01-30 0 6 0 100 9811
2019-01-31 1 16 0 89 8497
* 2018 338 6176 81 641 2624946
Décembre 2018 43 306 8 253 421582
Novembre 2018 26 467 9 641 383363
2018-11-01 1 9 1 134 8941
2018-11-02 0 12 0 138 13320
2018-11-03 1 7 1 144 15011
2018-11-04 5 36 0 176 20866
2018-11-05 2 19 0 163 16221
2018-11-06 1 18 1 130 15015
2018-11-07 0 18 0 239 17530
2018-11-08 1 13 1 200 11015
2018-11-09 0 18 0 265 17559
2018-11-10 1 13 1 262 23662
2018-11-11 0 10 0 161 21706
2018-11-12 1 22 0 274 33147
2018-11-13 0 25 0 425 19047
2018-11-14 1 18 1 550 12156
2018-11-15 1 8 1 641 16863
2018-11-16 1 14 0 168 16611
2018-11-17 0 5 1 577 19696
2018-11-18 0 5 0 184 9470
2018-11-19 1 10 1 373 15763
2018-11-20 1 23 0 257 11354
2018-11-21 2 8 0 110 5798
2018-11-22 0 9 0 89 5367
2018-11-23 1 22 0 92 4528
2018-11-24 1 21 0 30 2309
2018-11-25 2 13 0 43 4520
2018-11-26 2 26 0 34 2339
2018-11-27 0 21 0 42 2307
2018-11-28 0 20 0 116 5597
2018-11-29 0 9 0 117 6218
2018-11-30 0 15 0 109 9427
Octobre 2018 34 527 6 321 248725
2018-10-01 0 16 0 104 3916
2018-10-02 2 19 0 102 5182
2018-10-03 0 11 0 124 6042
2018-10-04 1 8 0 89 7397
2018-10-05 0 1 1 89 4993
2018-10-06 1 10 0 123 5725
2018-10-07 1 14 1 93 5795
2018-10-08 2 17 0 102 5479
2018-10-09 1 29 1 113 7032
2018-10-10 1 19 0 139 7853
2018-10-11 2 19 0 126 7235
2018-10-12 1 28 0 140 7594
2018-10-13 0 12 0 135 7817
2018-10-14 5 26 0 146 7428
2018-10-15 2 51 0 149 7144
2018-10-16 0 22 0 102 6306
2018-10-17 4 25 0 121 6311
2018-10-18 2 14 0 122 6339
2018-10-19 0 10 0 136 5992
2018-10-20 0 8 0 115 6644
2018-10-21 0 15 1 129 6181
2018-10-22 0 11 0 112 5588
2018-10-23 1 9 0 127 15828
2018-10-24 1 15 1 135 23623
2018-10-25 0 8 0 321 10005
2018-10-26 2 34 1 145 7134
2018-10-27 2 19 0 252 10544
2018-10-28 0 9 0 276 9982
2018-10-29 1 15 0 269 10127
2018-10-30 2 21 0 207 9059
2018-10-31 0 12 0 255 12430
Septembre 2018 34 641 10 127 216306
Août 2018 32 583 16 101 188648
2018-08-01 0 26 0 98 6784
2018-08-02 0 29 0 101 6795
2018-08-03 0 11 0 93 6370
2018-08-04 5 19 1 90 6653
2018-08-05 4 23 0 93 6519
2018-08-06 0 24 0 95 6142
2018-08-07 2 23 1 94 5013
2018-08-08 0 18 0 93 6325
2018-08-09 1 9 0 98 6608
2018-08-10 1 13 1 101 6723
2018-08-11 0 17 1 94 6721
2018-08-12 1 9 2 92 6116
2018-08-13 2 19 0 93 6356
2018-08-14 0 5 0 90 6043
2018-08-15 1 16 0 93 6200
2018-08-16 1 34 0 89 6859
2018-08-17 0 25 0 86 5971
2018-08-18 0 27 1 90 6101
2018-08-19 4 24 0 94 6672
2018-08-20 0 10 1 83 6150
2018-08-21 1 9 2 93 5405
2018-08-22 1 24 0 90 4343
2018-08-23 3 23 3 89 5993
2018-08-24 1 54 3 92 7389
2018-08-25 0 13 0 84 5312
2018-08-26 0 3 0 83 5702
2018-08-27 0 9 0 82 5196
2018-08-28 2 10 0 84 5401
2018-08-29 1 8 0 82 4297
2018-08-30 1 19 0 27 4663
2018-08-31 0 30 0 22 7826
Juillet 2018 21 386 3 104 182475
Juin 2018 31 442 3 110 213303
2018-06-01 0 14 0 88 5056
2018-06-02 4 11 0 93 4990
2018-06-03 0 9 0 82 2169
2018-06-04 2 10 0 110 5416
2018-06-05 0 11 1 110 5638
2018-06-06 0 14 0 102 5779
2018-06-07 1 5 0 95 5120
2018-06-08 1 7 0 88 5602
2018-06-09 1 8 0 95 4834
2018-06-10 2 29 0 92 26151
2018-06-11 0 6 0 98 18021
2018-06-12 2 31 0 106 6413
2018-06-13 1 21 0 102 6468
2018-06-14 1 44 0 94 6579
2018-06-15 0 14 0 107 5965
2018-06-16 0 11 0 101 5931
2018-06-17 2 7 1 106 6370
2018-06-18 0 3 1 97 6629
2018-06-19 3 25 0 97 6644
2018-06-20 1 26 0 100 7477
2018-06-21 3 12 0 92 7344
2018-06-22 4 26 0 102 7199
2018-06-23 0 14 0 99 8418
2018-06-24 0 17 0 102 8652
2018-06-25 2 19 0 104 7248
2018-06-26 0 5 0 87 4771
2018-06-27 0 8 0 97 5100
2018-06-28 1 6 0 88 6575
2018-06-29 0 20 0 91 5177
2018-06-30 0 9 0 90 5567
Mai 2018 21 422 4 107 174393
Avril 2018 25 564 5 104 159849
2018-04-01 5 38 1 78 19803
2018-04-02 1 37 0 81 4900
2018-04-03 0 28 0 80 4480
2018-04-04 1 26 0 88 4206
2018-04-05 3 35 0 84 4988
2018-04-06 0 18 0 82 4984
2018-04-07 0 8 0 86 4144
2018-04-08 2 17 0 90 4595
2018-04-09 0 32 0 83 4451
2018-04-10 0 21 0 84 4551
2018-04-11 0 12 0 93 4320
2018-04-12 0 21 0 104 5608
2018-04-13 1 10 0 85 4997
2018-04-14 2 39 1 91 4749
2018-04-15 2 21 0 92 5393
2018-04-16 1 13 0 92 5327
2018-04-17 0 9 0 88 4518
2018-04-18 0 12 1 89 4185
2018-04-19 0 7 0 16 1456
2018-04-20 0 6 0 82 2948
2018-04-21 0 6 0 81 4974
2018-04-22 0 3 0 83 4887
2018-04-23 2 9 0 85 5259
2018-04-24 3 20 0 82 4998
2018-04-25 0 16 1 81 5180
2018-04-26 0 11 0 78 4558
2018-04-27 1 23 1 86 10368
2018-04-28 0 26 0 88 5449
2018-04-29 1 20 0 86 4042
2018-04-30 0 20 0 99 5531
Mars 2018 20 634 4 96 152933
Février 2018 25 631 7 93 121912
2018-02-01 0 25 0 84 3932
2018-02-02 0 16 0 93 3849
2018-02-03 0 20 0 86 5032
2018-02-04 1 17 0 81 4606
2018-02-05 1 23 1 78 4124
2018-02-06 0 8 0 76 3893
2018-02-07 1 14 0 81 4611
2018-02-08 4 44 2 87 4610
2018-02-09 0 14 0 88 11329
2018-02-10 0 25 0 82 9515
2018-02-11 2 25 0 79 5144
2018-02-12 4 65 1 80 5149
2018-02-13 1 57 0 84 5260
2018-02-14 0 11 0 74 3020
2018-02-15 0 10 0 76 4605
2018-02-16 0 13 0 79 4615
2018-02-17 0 8 0 67 2499
2018-02-18 2 38 0 71 5101
2018-02-19 0 10 0 77 4192
2018-02-20 0 16 1 64 3560
2018-02-21 0 12 1 73 4039
2018-02-22 0 25 0 68 4479
2018-02-23 1 18 0 62 3451
2018-02-24 0 14 0 64 2075
2018-02-25 0 20 0 22 1521
2018-02-26 4 33 0 35 2611
2018-02-27 4 32 1 18 2068
2018-02-28 0 18 0 19 3022
Janvier 2018 26 573 6 94 161457
* 2017 346 6100 56 180 1675168
Décembre 2017 37 499 6 91 136063
Novembre 2017 37 675 6 93 169670
Octobre 2017 15 426 2 93 151449
Septembre 2017 28 548 5 94 135543
Août 2017 29 384 6 99 148097
Juillet 2017 25 490 5 87 176472
Juin 2017 33 603 4 89 156248
Mai 2017 26 470 2 99 181189
2017-05-01 0 10 0 60 6651
2017-05-02 0 5 0 93 7583
2017-05-03 1 12 0 87 7979
2017-05-04 2 21 0 78 8358
2017-05-05 1 14 0 71 7427
2017-05-06 0 21 0 72 7076
2017-05-07 1 22 0 77 6140
2017-05-08 0 10 0 72 5729
2017-05-09 0 14 1 74 7689
2017-05-10 2 16 0 73 4488
2017-05-11 0 12 0 70 3188
2017-05-12 1 38 0 68 5384
2017-05-13 0 4 0 59 5267
2017-05-14 3 17 0 72 6766
2017-05-15 0 12 0 71 5041
2017-05-16 0 23 0 61 5057
2017-05-17 2 22 0 99 5471
2017-05-18 2 31 0 64 6069
2017-05-19 0 19 0 63 4606
2017-05-20 0 8 0 72 6432
2017-05-21 2 11 0 63 5595
2017-05-22 1 16 0 64 4783
2017-05-23 0 24 0 64 4472
2017-05-24 1 8 0 79 4750
2017-05-25 0 4 0 61 4617
2017-05-26 0 11 0 63 7032
2017-05-27 6 19 0 61 5588
2017-05-28 0 11 0 72 3450
2017-05-29 0 6 0 69 8108
2017-05-30 1 19 1 64 5031
2017-05-31 0 10 0 72 5362
Avril 2017 31 490 5 180 139896
Mars 2017 27 432 3 119 90981
2017-03-01 1 13 0 20 1366
2017-03-02 1 7 1 15 939
2017-03-03 4 15 0 16 1322
2017-03-04 1 4 1 14 1224
2017-03-05 0 11 0 14 760
2017-03-06 1 36 1 17 1184
2017-03-07 0 14 0 18 1120
2017-03-08 2 22 0 19 1229
2017-03-09 1 23 0 15 1153
2017-03-10 0 22 0 15 1149
2017-03-11 0 15 0 16 1171
2017-03-12 3 16 0 91 4295
2017-03-13 0 14 0 91 4471
2017-03-14 1 18 0 79 3743
2017-03-15 0 9 0 71 3377
2017-03-16 1 16 0 70 3703
2017-03-17 0 8 0 73 3263
2017-03-18 0 13 0 64 3669
2017-03-19 0 9 0 92 3639
2017-03-20 0 11 0 90 4905
2017-03-21 2 6 0 83 5720
2017-03-22 2 14 0 95 4760
2017-03-23 1 9 0 66 6486
2017-03-24 2 12 0 65 2928
2017-03-25 0 15 0 67 3275
2017-03-26 2 8 0 55 1890
2017-03-27 0 16 0 119 3309
2017-03-28 1 17 0 87 4615
2017-03-29 0 20 0 86 4109
2017-03-30 1 7 0 69 3543
2017-03-31 0 12 0 73 2664
Février 2017 31 587 7 87 74924
Janvier 2017 27 496 5 80 114636
* 2016 389 7721 79 245 2075605
Décembre 2016 34 533 2 170 118206
Novembre 2016 34 586 6 245 122991
2016-11-01 0 34 0 79 3768
2016-11-02 1 38 0 64 4674
2016-11-03 0 17 0 50 3172
2016-11-04 3 43 1 52 3641
2016-11-05 0 23 1 54 4697
2016-11-06 2 19 0 50 3669
2016-11-07 1 24 0 81 3628
2016-11-08 1 15 0 83 5212
2016-11-09 0 11 1 52 2529
2016-11-10 0 16 0 33 3252
2016-11-11 1 17 0 66 3953
2016-11-12 3 25 1 66 4075
2016-11-13 1 4 0 62 4031
2016-11-14 2 21 0 55 3434
2016-11-15 0 20 0 245 4465
2016-11-16 3 26 1 70 4516
2016-11-17 0 26 0 64 4350
2016-11-18 1 18 0 70 3943
2016-11-19 0 16 0 68 4222
2016-11-20 3 21 0 65 3980
2016-11-21 0 14 0 60 3884
2016-11-22 0 15 0 48 3315
2016-11-23 1 14 0 86 4910
2016-11-24 1 13 0 64 4600
2016-11-25 4 30 0 68 4613
2016-11-26 1 12 0 66 5051
2016-11-27 3 14 1 59 4515
2016-11-28 1 6 0 59 3726
2016-11-29 1 29 0 61 5179
2016-11-30 0 5 0 75 3987
Octobre 2016 43 726 7 191 160217
2016-10-01 0 2 0 77 5321
2016-10-02 1 21 0 58 3379
2016-10-03 0 20 0 65 4029
2016-10-04 4 16 0 54 5012
2016-10-05 2 26 1 54 8464
2016-10-06 2 23 0 54 4844
2016-10-07 3 30 0 58 4198
2016-10-08 0 20 0 79 5202
2016-10-09 2 16 0 139 7188
2016-10-10 0 23 0 67 5666
2016-10-11 5 27 0 65 5851
2016-10-12 1 57 0 55 5424
2016-10-13 4 46 1 60 5322
2016-10-14 3 27 0 63 4776
2016-10-15 6 27 0 191 5482
2016-10-16 1 37 1 83 5433
2016-10-17 3 23 0 82 4868
2016-10-18 0 9 0 66 3634
2016-10-19 0 13 1 64 4158
2016-10-20 0 22 1 56 15180
2016-10-21 0 14 0 55 4340
2016-10-22 1 19 0 57 3387
2016-10-23 0 3 0 30 2919
2016-10-24 1 40 1 78 4044
2016-10-25 2 31 0 76 4859
2016-10-26 0 26 0 72 5816
2016-10-27 0 20 0 72 3954
2016-10-28 0 19 0 70 4387
2016-10-29 0 26 0 63 4333
2016-10-30 1 16 0 66 4530
2016-10-31 1 27 1 77 4217
Septembre 2016 26 657 9 85 157449
Août 2016 31 721 9 114 169873
Juillet 2016 19 513 3 58 166690
2016-07-01 0 12 0 45 7913
2016-07-02 1 14 0 53 5460
2016-07-03 0 12 0 43 5640
2016-07-04 0 21 0 51 5125
2016-07-05 0 19 0 53 19299
2016-07-06 1 26 0 47 4798
2016-07-07 1 14 1 45 5226
2016-07-08 0 17 0 29 4376
2016-07-09 2 9 1 33 3581
2016-07-10 0 17 0 30 3953
2016-07-11 0 19 0 33 3994
2016-07-12 0 6 0 34 4003
2016-07-13 0 6 0 29 3703
2016-07-14 0 9 0 36 3393
2016-07-15 0 12 0 46 3985
2016-07-16 0 8 0 49 3862
2016-07-17 1 15 0 46 6224
2016-07-18 3 49 0 48 9490
2016-07-19 5 19 0 58 12133
2016-07-20 1 27 0 53 6421
2016-07-21 0 15 0 44 4051
2016-07-22 1 24 0 35 2980
2016-07-23 0 9 0 46 2786
2016-07-24 0 5 0 50 3313
2016-07-25 0 18 0 48 3778
2016-07-26 1 16 0 49 3234
2016-07-27 1 13 1 45 3378
2016-07-28 0 28 0 42 4140
2016-07-29 0 14 0 54 4296
2016-07-30 0 16 0 49 6668
2016-07-31 1 24 0 56 5487
Juin 2016 30 565 5 53 211715
2016-06-01 0 23 0 50 5705
2016-06-02 0 11 0 43 5378
2016-06-03 2 19 1 44 5189
2016-06-04 3 11 1 41 4784
2016-06-05 0 5 0 43 4968
2016-06-06 0 12 0 42 4648
2016-06-07 1 23 0 38 4900
2016-06-08 3 37 0 44 5735
2016-06-09 0 14 0 45 5120
2016-06-10 1 34 0 44 6103
2016-06-11 1 16 0 41 10876
2016-06-12 2 17 1 41 13531
2016-06-13 1 35 0 53 6090
2016-06-14 3 21 1 41 5179
2016-06-15 0 17 0 51 5317
2016-06-16 1 28 1 42 5293
2016-06-17 1 21 0 44 5043
2016-06-18 1 23 0 43 5316
2016-06-19 3 20 0 42 5955
2016-06-20 2 35 0 42 6606
2016-06-21 1 25 0 44 7531
2016-06-22 0 23 0 38 6542
2016-06-23 0 25 0 42 7081
2016-06-24 0 11 0 43 8292
2016-06-25 0 10 0 44 10674
2016-06-26 0 7 0 44 4154
2016-06-27 2 5 0 41 6089
2016-06-28 1 12 0 38 13559
2016-06-29 1 15 0 43 13424
2016-06-30 0 10 0 53 12633
Mai 2016 40 1116 8 94 166514
Avril 2016 27 529 7 65 155208
Mars 2016 35 513 11 88 224056
Février 2016 35 640 4 96 192454
2016-02-01 1 22 0 74 8459
2016-02-02 0 20 0 87 6602
2016-02-03 2 37 0 76 17946
2016-02-04 0 19 0 64 5160
2016-02-05 1 28 0 73 4553
2016-02-06 2 27 0 78 4715
2016-02-07 4 24 0 69 4878
2016-02-08 0 21 0 22 2514
2016-02-09 0 10 0 72 6304
2016-02-10 1 10 0 90 4785
2016-02-11 1 27 0 77 5427
2016-02-12 0 34 0 82 5486
2016-02-13 1 28 1 77 6932
2016-02-14 1 24 0 82 7091
2016-02-15 3 42 1 81 5791
2016-02-16 1 25 1 75 6305
2016-02-17 2 35 0 95 5664
2016-02-18 2 36 0 76 5744
2016-02-19 1 24 0 76 5288
2016-02-20 4 21 0 96 5390
2016-02-21 2 14 1 70 5007
2016-02-22 1 24 0 84 5259
2016-02-23 2 21 0 78 6312
2016-02-24 0 11 0 80 7832
2016-02-25 1 5 0 79 5226
2016-02-26 0 10 0 70 5018
2016-02-27 2 21 0 75 5289
2016-02-28 0 9 0 83 12718
2016-02-29 0 11 0 72 14759
Janvier 2016 35 622 8 95 230232
2016-01-01 1 38 0 74 6938
2016-01-02 5 14 0 62 4266
2016-01-03 1 10 0 73 4160
2016-01-04 1 17 1 74 5076
2016-01-05 2 22 0 81 6676
2016-01-06 0 16 1 73 2487
2016-01-07 2 18 1 73 16041
2016-01-08 1 18 1 68 8960
2016-01-09 0 15 0 83 5138
2016-01-10 2 38 0 80 5949
2016-01-11 2 44 0 77 6900
2016-01-12 0 18 0 77 7023
2016-01-13 1 29 1 83 8300
2016-01-14 1 17 0 94 10452
2016-01-15 1 20 0 90 7501
2016-01-16 0 35 0 95 11508
2016-01-17 0 32 0 85 12436
2016-01-18 1 14 0 81 15167
2016-01-19 1 23 0 83 13475
2016-01-20 1 20 0 79 9097
2016-01-21 0 9 0 75 7399
2016-01-22 1 8 0 71 7610
2016-01-23 0 18 0 73 5798
2016-01-24 1 20 0 66 5545
2016-01-25 4 14 0 74 4580
2016-01-26 1 14 0 75 6897
2016-01-27 1 11 1 80 5561
2016-01-28 1 22 0 83 5191
2016-01-29 0 14 0 73 4905
2016-01-30 1 14 1 81 4215
2016-01-31 2 20 1 64 4981
* 2015 373 6684 79 100 1549803
Décembre 2015 28 499 7 68 140303
Novembre 2015 40 724 5 35 146607
Octobre 2015 32 760 10 84 227528
2015-10-01 1 18 0 82 8525
2015-10-02 1 10 0 80 4829
2015-10-03 0 7 0 13 2541
2015-10-04 0 7 0 74 5391
2015-10-05 3 45 2 39 10558
2015-10-06 4 42 1 84 20928
2015-10-07 0 30 0 79 21334
2015-10-08 0 12 0 39 12723
2015-10-09 1 14 2 22 4574
2015-10-10 0 8 0 80 5752
2015-10-11 1 36 0 23 4613
2015-10-12 3 25 0 23 3928
2015-10-13 0 35 0 20 3575
2015-10-14 3 25 0 79 9055
2015-10-15 1 32 0 22 7638
2015-10-16 1 43 0 82 8658
2015-10-17 0 34 0 62 6865
2015-10-18 2 31 0 66 5798
2015-10-19 0 21 0 73 5660
2015-10-20 1 29 0 23 4062
2015-10-21 0 22 0 28 20035
2015-10-22 1 22 1 27 6384
2015-10-23 2 15 0 25 6058
2015-10-24 2 27 2 26 4323
2015-10-25 0 11 0 32 4915
2015-10-26 2 22 0 31 4192
2015-10-27 0 26 1 41 5915
2015-10-28 1 28 0 41 5310
2015-10-29 2 29 0 21 4485
2015-10-30 0 38 0 23 4216
2015-10-31 0 16 1 27 4688
Septembre 2015 40 948 13 100 169012
Août 2015 36 566 12 61 119954
Juillet 2015 29 462 7 31 89666
Juin 2015 24 453 5 30 112317
Mai 2015 30 390 2 24 73874
Avril 2015 29 408 4 25 95371
Mars 2015 38 550 7 37 130116
Février 2015 15 434 2 24 123854
Janvier 2015 32 490 5 44 121201
* 2014 428 7364 58 58 2478164
Décembre 2014 24 360 4 33 191610
2014-12-01 0 4 0 21 6641
2014-12-02 2 17 0 26 7244
2014-12-03 0 9 0 31 7910
2014-12-04 1 11 0 26 8107
2014-12-05 1 10 1 23 7074
2014-12-06 0 6 0 33 8321
2014-12-07 1 18 0 20 5632
2014-12-08 1 17 0 24 7793
2014-12-09 1 19 0 21 5936
2014-12-10 0 8 0 17 5092
2014-12-11 0 6 0 20 5467
2014-12-12 0 6 0 27 7318
2014-12-13 1 17 0 23 10029
2014-12-14 1 6 0 24 6467
2014-12-15 1 12 0 23 8102
2014-12-16 0 12 0 20 6013
2014-12-17 0 3 0 22 6999
2014-12-18 0 5 1 22 6892
2014-12-19 1 10 0 21 7099
2014-12-20 1 13 0 19 7148
2014-12-21 0 2 0 27 4864
2014-12-22 0 2 0 23 5428
2014-12-23 2 12 0 20 5923
2014-12-24 1 11 0 21 4951
2014-12-25 0 8 1 19 4762
2014-12-26 6 28 0 17 4609
2014-12-27 0 21 0 24 6807
2014-12-28 3 51 1 19 4079
2014-12-29 0 9 0 17 3335
2014-12-30 0 3 0 16 2402
2014-12-31 0 4 0 18 3166
Novembre 2014 37 572 7 46 525858
Octobre 2014 45 928 8 58 364915
Septembre 2014 24 549 8 32 162413
Août 2014 17 251 4 27 191624
Juillet 2014 25 369 3 30 236312
Juin 2014 29 602 3 32 220918
2014-06-01 1 5 0 24 6791
2014-06-02 1 10 0 20 3083
2014-06-03 1 21 0 28 5918
2014-06-04 0 9 0 24 7578
2014-06-05 2 32 0 23 6468
2014-06-06 0 15 0 27 5750
2014-06-07 1 20 0 27 6064
2014-06-08 0 16 0 25 5982
2014-06-09 0 15 0 31 5881
2014-06-10 1 15 0 27 6293
2014-06-11 1 26 0 32 9966
2014-06-12 1 15 0 24 9897
2014-06-13 1 18 0 29 6454
2014-06-14 3 16 1 18 6297
2014-06-15 0 27 0 28 10859
2014-06-16 1 25 0 27 11904
2014-06-17 1 24 0 27 7926
2014-06-18 1 36 0 25 7600
2014-06-19 0 16 0 25 7850
2014-06-20 0 21 1 17 5649
2014-06-21 1 24 0 16 7833
2014-06-22 1 12 1 19 11161
2014-06-23 4 41 0 25 12869
2014-06-24 2 29 0 20 12603
2014-06-25 1 27 0 20 6974
2014-06-26 2 21 0 20 4216
2014-06-27 1 17 0 20 5405
2014-06-28 0 12 0 15 4740
2014-06-29 0 20 0 16 4717
2014-06-30 1 17 0 18 6190
Mai 2014 34 842 6 29 157174
Avril 2014 45 662 1 25 104486
Mars 2014 32 595 4 26 120439
Février 2014 24 660 5 28 102996
2014-02-01 1 22 0 23 2869
2014-02-02 1 33 0 22 3362
2014-02-03 1 60 0 23 3816
2014-02-04 0 33 0 20 3763
2014-02-05 0 40 0 18 3526
2014-02-06 1 21 1 15 3424
2014-02-07 1 22 0 16 2254
2014-02-08 2 20 0 13 1959
2014-02-09 2 42 0 14 4999
2014-02-10 0 32 0 19 2823
2014-02-11 3 37 0 14 2859
2014-02-12 0 24 0 15 2417
2014-02-13 0 16 1 15 2924
2014-02-14 0 11 0 14 2482
2014-02-15 1 16 1 18 3069
2014-02-16 0 13 0 24 3497
2014-02-17 0 5 0 20 3495
2014-02-18 0 9 0 19 3924
2014-02-19 3 21 0 25 5311
2014-02-20 0 58 0 24 6280
2014-02-21 0 22 0 22 4472
2014-02-22 0 14 1 22 3599
2014-02-23 1 23 1 21 5173
2014-02-24 0 14 0 26 3800
2014-02-25 0 9 0 28 6099
2014-02-26 3 10 0 19 3668
2014-02-27 1 17 0 24 3604
2014-02-28 3 16 0 22 3528
Janvier 2014 92 974 5 33 99419
* 2013 408 8887 76 89 1597727
Décembre 2013 36 785 2 79 132305
Novembre 2013 36 751 8 29 141119
Octobre 2013 37 683 10 26 116570
Septembre 2013 33 723 15 29 160779
Août 2013 20 356 4 30 113960
Juillet 2013 21 331 2 24 120164
Juin 2013 40 731 5 34 119512
Mai 2013 34 881 3 47 157484
Avril 2013 38 799 8 33 124279
Mars 2013 40 1111 9 62 147762
Février 2013 32 838 5 79 125299
Janvier 2013 41 898 5 89 138494
* 2012 446 10690 67 157 1274957
Décembre 2012 57 1411 4 45 150137
Novembre 2012 46 1137 8 25 112399
2012-11-01 4 28 0 21 2832
2012-11-02 4 55 0 18 3206
2012-11-03 0 21 0 22 3154
2012-11-04 0 31 0 15 2586
2012-11-05 4 82 1 25 4080
2012-11-06 2 42 0 16 3097
2012-11-07 1 48 0 22 4970
2012-11-08 0 28 0 16 3568
2012-11-09 1 49 0 19 4597
2012-11-10 1 10 0 16 2795
2012-11-11 0 17 0 21 2967
2012-11-12 0 23 0 18 3459
2012-11-13 5 42 1 19 3524
2012-11-14 3 51 2 19 5413
2012-11-15 2 33 0 22 3002
2012-11-16 0 25 0 17 3266
2012-11-17 0 18 0 14 3418
2012-11-18 3 41 0 19 3365
2012-11-19 1 47 0 22 3809
2012-11-20 3 55 0 21 3598
2012-11-21 2 73 2 23 4155
2012-11-22 1 32 0 18 4168
2012-11-23 0 29 0 21 3704
2012-11-24 0 16 0 24 3065
2012-11-25 3 46 0 15 3966
2012-11-26 3 68 1 20 5492
2012-11-27 1 36 0 18 5358
2012-11-28 1 50 0 25 3829
2012-11-29 1 29 1 25 4706
2012-11-30 0 12 0 15 3250
Octobre 2012 45 1068 7 25 80970
Septembre 2012 37 876 11 38 107023
Août 2012 30 595 5 41 95032
Juillet 2012 24 563 2 157 78638
Juin 2012 39 984 10 33 88620
2012-06-01 0 22 0 22 2768
2012-06-02 2 19 0 16 2287
2012-06-03 2 49 1 20 2991
2012-06-04 1 20 0 18 2557
2012-06-05 0 18 0 25 2088
2012-06-06 2 20 0 16 2460
2012-06-07 1 31 1 22 3106
2012-06-08 1 47 1 18 3140
2012-06-09 2 34 1 21 2277
2012-06-10 0 50 1 18 3163
2012-06-11 3 54 0 16 2912
2012-06-12 4 24 1 19 2270
2012-06-13 3 26 0 33 2675
2012-06-14 0 21 1 14 2735
2012-06-15 0 14 0 16 2910
2012-06-16 0 14 0 16 2617
2012-06-17 1 12 0 16 3557
2012-06-18 1 55 1 23 4850
2012-06-19 2 39 0 20 3959
2012-06-20 2 37 1 21 4389
2012-06-21 1 26 0 21 3322
2012-06-22 0 24 0 17 2839
2012-06-23 1 35 0 15 2885
2012-06-24 0 32 0 17 2599
2012-06-25 1 51 0 20 3408
2012-06-26 2 49 0 18 2936
2012-06-27 3 22 1 23 2275
2012-06-28 1 76 0 22 3034
2012-06-29 1 32 0 18 2424
2012-06-30 2 31 0 17 3187
Mai 2012 22 703 5 26 77701
2012-05-01 2 31 0 24 2676
2012-05-02 2 37 0 16 2377
2012-05-03 1 28 0 17 2595
2012-05-04 0 32 0 17 2833
2012-05-05 2 29 1 21 2604
2012-05-06 0 26 0 19 3019
2012-05-07 1 23 0 15 2984
2012-05-08 1 21 0 15 2018
2012-05-09 0 22 0 15 1937
2012-05-10 3 29 1 26 2194
2012-05-11 1 18 0 17 2614
2012-05-12 0 25 0 18 2467
2012-05-13 1 21 0 15 1929
2012-05-14 0 19 0 15 2270
2012-05-15 0 20 0 13 2021
2012-05-16 2 19 1 20 1978
2012-05-17 0 28 0 17 2478
2012-05-18 1 11 0 13 2280
2012-05-19 0 14 0 17 2552
2012-05-20 0 12 0 20 2256
2012-05-21 0 14 0 20 3771
2012-05-22 1 14 0 17 1888
2012-05-23 2 32 1 14 2221
2012-05-24 0 39 1 16 2279
2012-05-25 0 20 0 13 2197
2012-05-26 0 11 0 12 2044
2012-05-27 0 17 0 16 2881
2012-05-28 0 19 0 13 2192
2012-05-29 2 26 0 19 2789
2012-05-30 0 14 0 19 4625
2012-05-31 0 32 0 17 2732
Avril 2012 33 714 4 33 95151
Mars 2012 35 977 5 48 160160
Février 2012 34 704 5 33 117877
2012-02-01 4 29 0 21 3610
2012-02-02 2 26 0 24 5279
2012-02-03 0 13 0 16 3779
2012-02-04 1 23 0 19 3802
2012-02-05 1 18 0 21 4835
2012-02-06 4 31 1 28 4403
2012-02-07 3 36 0 21 3830
2012-02-08 0 16 0 21 3805
2012-02-09 1 23 0 21 3894
2012-02-10 0 29 1 23 3679
2012-02-11 0 7 0 24 3043
2012-02-12 0 17 0 25 3175
2012-02-13 2 14 1 13 2124
2012-02-14 0 34 0 22 3657
2012-02-15 2 25 0 25 3278
2012-02-16 0 5 0 24 2556
2012-02-17 0 15 1 24 3186
2012-02-18 1 10 0 17 2384
2012-02-19 4 21 0 20 2559
2012-02-20 1 31 0 23 2799
2012-02-21 1 45 0 21 4992
2012-02-22 0 31 0 32 6101
2012-02-23 0 9 0 31 5330
2012-02-24 1 28 0 22 4611
2012-02-25 2 20 1 32 4925
2012-02-26 2 50 0 29 5297
2012-02-27 1 26 0 33 4546
2012-02-28 1 45 0 23 5919
2012-02-29 0 27 0 26 6479
Janvier 2012 44 958 1 30 111249
* 2011 822 21877 118 48 1861895
Décembre 2011 68 1315 7 36 141929
Novembre 2011 94 1539 4 36 150015
Octobre 2011 81 1597 13 41 169207
Septembre 2011 96 1991 19 24 158540
2011-09-01 1 105 0 18 4820
2011-09-02 0 44 0 17 3692
2011-09-03 0 35 0 16 3065
2011-09-04 1 39 1 18 3341
2011-09-05 4 67 1 21 3815
2011-09-06 0 37 0 12 5171
2011-09-07 2 64 2 17 7762
2011-09-08 2 83 0 23 7440
2011-09-09 0 103 0 20 8363
2011-09-10 0 27 0 15 6046
2011-09-11 11 96 0 24 5135
2011-09-12 6 137 1 18 5300
2011-09-13 18 102 0 19 6004
2011-09-14 5 57 0 22 4369
2011-09-15 2 43 0 15 3469
2011-09-16 3 88 0 18 5547
2011-09-17 1 43 2 19 4640
2011-09-18 4 42 2 21 5991
2011-09-19 2 80 0 18 5773
2011-09-20 4 66 1 22 6364
2011-09-21 8 83 0 21 5960
2011-09-22 1 47 2 20 4972
2011-09-23 2 43 0 18 4346
2011-09-24 2 44 0 23 3841
2011-09-25 2 62 3 20 4963
2011-09-26 1 65 0 19 4935
2011-09-27 6 66 3 19 4561
2011-09-28 3 108 1 21 5839
2011-09-29 5 77 0 18 7139
2011-09-30 0 38 0 15 5877
Août 2011 68 1372 16 48 135201
Juillet 2011 57 1156 10 30 112626
Juin 2011 40 1214 6 31 149115
Mai 2011 64 1997 8 39 181997
Avril 2011 46 1637 9 38 176986
Mars 2011 54 2388 6 31 211307
Février 2011 59 2656 5 46 128248
Janvier 2011 95 3015 15 44 146724
2011-01-01 4 28 1 33 3209
2011-01-02 3 53 0 27 3194
2011-01-03 4 120 0 23 4999
2011-01-04 4 123 0 25 4781
2011-01-05 2 129 0 36 4810
2011-01-06 3 97 1 27 4554
2011-01-07 0 98 0 25 4909
2011-01-08 1 28 1 20 3049
2011-01-09 3 61 0 20 3543
2011-01-10 3 87 0 36 4897
2011-01-11 1 79 1 25 4007
2011-01-12 2 149 0 34 5515
2011-01-13 6 143 3 40 5584
2011-01-14 5 244 0 29 8061
2011-01-15 1 41 0 36 4401
2011-01-16 9 38 0 23 3832
2011-01-17 2 153 0 44 6302
2011-01-18 4 85 0 32 5425
2011-01-19 4 92 0 29 4997
2011-01-20 5 99 1 25 4295
2011-01-21 3 75 0 30 4089
2011-01-22 3 45 1 32 3479
2011-01-23 1 85 1 32 4851
2011-01-24 1 79 0 35 4531
2011-01-25 2 98 0 30 5112
2011-01-26 4 137 3 25 5274
2011-01-27 1 118 0 27 5128
2011-01-28 4 130 1 32 5328
2011-01-29 1 78 0 25 4103
2011-01-30 2 58 0 33 3935
2011-01-31 7 165 1 33 6530
* 2010 615 23079 70 91 1409620
Décembre 2010 54 2635 5 43 199984
Novembre 2010 59 2475 6 49 127779
Octobre 2010 56 2811 15 58 134942
Septembre 2010 53 1528 8 29 95249
Août 2010 32 1287 6 33 89617
2010-08-01 2 44 0 14 2375
2010-08-02 1 72 0 19 3526
2010-08-03 2 81 0 33 3516
2010-08-04 0 87 0 21 2742
2010-08-05 0 80 0 17 3348
2010-08-06 2 149 0 20 3946
2010-08-07 1 29 1 17 2159
2010-08-08 1 27 0 16 2369
2010-08-09 3 52 0 20 2680
2010-08-10 0 52 0 15 3070
2010-08-11 2 38 0 21 4295
2010-08-12 1 36 0 18 2513
2010-08-13 0 15 0 15 2131
2010-08-14 0 10 1 8 6123
2010-08-15 0 5 1 10 2220
2010-08-16 2 21 0 12 2503
2010-08-17 0 12 0 13 2212
2010-08-18 0 17 0 12 2490
2010-08-19 0 24 0 11 2741
2010-08-20 2 30 0 22 3123
2010-08-21 1 20 0 13 2077
2010-08-22 2 35 0 12 1743
2010-08-23 3 43 0 16 2815
2010-08-24 1 41 0 17 3088
2010-08-25 0 47 0 14 2711
2010-08-26 1 61 0 16 2920
2010-08-27 2 37 0 15 3274
2010-08-28 0 20 0 9 1779
2010-08-29 0 16 1 14 2423
2010-08-30 1 32 0 17 3130
2010-08-31 2 54 2 15 3575
Juillet 2010 34 1637 5 32 97290
2010-07-01 1 30 0 21 3321
2010-07-02 1 52 1 16 3049
2010-07-03 1 37 0 16 2560
2010-07-04 0 16 0 13 2269
2010-07-05 4 85 0 26 4056
2010-07-06 0 91 0 21 4081
2010-07-07 1 121 1 21 4639
2010-07-08 1 73 0 24 3929
2010-07-09 1 79 0 24 3726
2010-07-10 0 27 0 17 2693
2010-07-11 1 29 0 17 2442
2010-07-12 0 62 0 32 4813
2010-07-13 2 51 0 17 2918
2010-07-14 1 36 0 21 3013
2010-07-15 0 52 0 19 3510
2010-07-16 1 70 0 16 3362
2010-07-17 1 24 0 13 2507
2010-07-18 4 28 0 14 2203
2010-07-19 2 62 0 17 3256
2010-07-20 0 28 0 22 2386
2010-07-21 0 42 0 21 2918
2010-07-22 3 41 2 28 2834
2010-07-23 1 66 0 16 3158
2010-07-24 0 49 1 24 2730
2010-07-25 0 44 0 20 2856
2010-07-26 1 74 0 20 3201
2010-07-27 0 44 0 18 3066
2010-07-28 6 60 0 24 2949
2010-07-29 0 55 0 19 2833
2010-07-30 0 72 0 22 3484
2010-07-31 1 37 0 20 2528
Juin 2010 46 2137 3 28 109648
Mai 2010 50 1497 6 28 99050
Avril 2010 45 1888 3 26 102219
Mars 2010 53 1534 2 46 118201
Février 2010 65 1574 4 91 117274
Janvier 2010 68 2076 7 43 118367
2010-01-01 1 46 0 20 3913
2010-01-02 4 31 1 32 3858
2010-01-03 2 36 0 28 3215
2010-01-04 4 63 0 32 3563
2010-01-05 6 83 1 14 3833
2010-01-06 1 75 0 29 4333
2010-01-07 1 69 0 28 3556
2010-01-08 3 91 0 31 3667
2010-01-09 2 63 0 16 6182
2010-01-10 3 84 0 26 5259
2010-01-11 0 69 0 34 3960
2010-01-12 2 49 1 38 3467
2010-01-13 3 71 0 43 3364
2010-01-14 6 94 0 22 3885
2010-01-15 1 39 0 35 3006
2010-01-16 4 72 0 29 3257
2010-01-17 3 64 0 21 3633
2010-01-18 1 108 1 25 4914
2010-01-19 0 43 0 32 4202
2010-01-20 2 67 0 41 4556
2010-01-21 1 91 1 31 3743
2010-01-22 2 86 0 34 3744
2010-01-23 2 36 1 19 2584
2010-01-24 0 37 0 21 3027
2010-01-25 2 126 1 37 4743
2010-01-26 2 71 0 34 3580
2010-01-27 1 58 0 20 3145
2010-01-28 1 65 0 13 3955
2010-01-29 3 81 0 17 3847
2010-01-30 2 48 0 14 2989
2010-01-31 3 60 0 14 3387
* 2009 752 28223 96 159 970278
Décembre 2009 39 2001 5 54 122418
Novembre 2009 59 3138 6 38 117432
Octobre 2009 67 3218 11 18 122232
2009-10-01 0 76 0 11 2516
2009-10-02 1 64 0 10 2579
2009-10-03 2 101 0 11 2851
2009-10-04 1 126 0 12 3520
2009-10-05 4 87 0 15 3448
2009-10-06 5 84 0 13 3357
2009-10-07 3 120 1 11 3765
2009-10-08 3 194 0 14 4579
2009-10-09 0 85 0 11 2918
2009-10-10 3 88 1 11 2279
2009-10-11 4 158 1 12 4547
2009-10-12 3 160 0 13 4399
2009-10-13 4 115 1 16 3779
2009-10-14 1 84 0 13 3531
2009-10-15 0 71 0 14 3213
2009-10-16 0 67 0 17 11597
2009-10-17 1 50 0 17 3148
2009-10-18 0 67 1 16 4508
2009-10-19 4 165 1 18 5455
2009-10-20 0 85 0 14 3066
2009-10-21 3 105 1 12 4822
2009-10-22 2 99 1 13 3611
2009-10-23 2 108 0 15 3666
2009-10-24 1 67 1 12 2884
2009-10-25 1 79 0 15 3733
2009-10-26 3 100 1 13 3989
2009-10-27 5 143 0 15 4733
2009-10-28 0 60 1 12 2921
2009-10-29 1 120 0 14 3964
2009-10-30 4 193 0 17 4507
2009-10-31 6 97 0 15 4347
Septembre 2009 73 2730 14 159 92082
Août 2009 47 1405 8 15 61919
Juillet 2009 68 1737 11 21 67267
Juin 2009 63 2759 4 37 72789
Mai 2009 46 2166 6 16 66386
Avril 2009 101 2850 6 16 73303
Mars 2009 80 3538 7 17 83610
Février 2009 57 1586 6 16 50521
Janvier 2009 52 1095 12 10 40319
* 2008 334 4655 56 26 234055
Décembre 2008 36 663 7 12 28104
Novembre 2008 51 1090 9 10 35948
Octobre 2008 50 609 5 10 26582
Septembre 2008 40 619 5 10 24365
Août 2008 28 252 6 9 21916
Juillet 2008 20 256 5 7 16733
2008-07-01 1 11 0 5 499
2008-07-02 0 6 1 3 428
2008-07-03 1 15 0 7 504
2008-07-04 0 11 0 0 562
2008-07-05 0 3 1 5 416
2008-07-06 2 8 0 4 518
2008-07-07 0 6 0 5 766
2008-07-08 1 7 0 5 391
2008-07-09 2 18 0 5 586
2008-07-10 0 9 0 4 473
2008-07-11 0 5 0 0 440
2008-07-12 0 0 0 3 232
2008-07-13 0 2 0 2 270
2008-07-14 0 2 0 3 291
2008-07-15 2 10 0 4 395
2008-07-16 0 6 0 5 497
2008-07-17 1 12 0 4 772
2008-07-18 0 8 1 5 640
2008-07-19 1 6 0 4 328
2008-07-20 0 4 0 4 336
2008-07-21 1 12 1 5 586
2008-07-22 3 17 0 5 650
2008-07-23 0 9 0 4 678
2008-07-24 2 9 1 5 1046
2008-07-25 0 2 0 0 497
2008-07-26 0 4 0 5 493
2008-07-27 1 10 0 6 1290
2008-07-28 1 13 0 4 446
2008-07-29 0 11 0 3 514
2008-07-30 0 12 0 5 698
2008-07-31 1 8 0 0 491
Juin 2008 17 363 6 26 18903
Mai 2008 17 180 2 10 13320
Avril 2008 16 146 3 8 16063
Mars 2008 18 158 1 9 12835
Février 2008 19 155 2 9 9679
2008-02-01 1 10 0 4 268
2008-02-02 0 7 0 0 349
2008-02-03 0 1 0 5 248
2008-02-04 6 11 0 4 440
2008-02-05 0 11 0 0 497
2008-02-06 0 3 0 5 239
2008-02-07 0 5 0 0 333
2008-02-08 2 3 0 4 257
2008-02-09 0 3 0 5 219
2008-02-10 0 0 0 3 182
2008-02-11 1 8 0 6 281
2008-02-12 0 4 0 4 281
2008-02-13 0 2 0 4 191
2008-02-14 0 4 0 3 211
2008-02-15 0 8 0 5 258
2008-02-16 1 3 0 4 214
2008-02-17 0 8 1 4 460
2008-02-18 2 6 0 4 401
2008-02-19 1 4 0 5 515
2008-02-20 1 7 0 4 467
2008-02-21 1 3 0 5 489
2008-02-22 1 9 0 4 359
2008-02-23 0 2 0 4 179
2008-02-24 1 3 0 3 277
2008-02-25 0 4 0 4 516
2008-02-26 0 12 0 5 456
2008-02-27 0 5 1 5 449
2008-02-28 0 3 0 3 330
2008-02-29 1 6 0 9 313
Janvier 2008 22 164 5 7 9607
* 2007 276 2246 55 9 102999
Décembre 2007 21 167 5 8 17081
Novembre 2007 20 168 3 6 8467
Octobre 2007 21 147 4 5 8193
Septembre 2007 22 183 4 9 9896
2007-09-01 1 6 0 4 255
2007-09-02 1 7 1 3 302
2007-09-03 2 13 0 5 572
2007-09-04 1 15 1 9 508
2007-09-05 1 4 1 7 396
2007-09-06 1 23 0 6 618
2007-09-07 1 9 1 0 426
2007-09-08 0 5 0 4 308
2007-09-09 0 2 0 5 280
2007-09-10 1 8 0 0 334
2007-09-11 5 17 0 6 584
2007-09-12 0 3 0 7 335
2007-09-13 0 2 0 8 430
2007-09-14 0 3 0 3 253
2007-09-15 0 1 0 2 169
2007-09-16 0 0 0 3 139
2007-09-17 0 3 0 4 258
2007-09-18 0 1 0 5 289
2007-09-19 1 8 0 4 366
2007-09-20 1 4 0 3 258
2007-09-21 1 5 0 3 285
2007-09-22 0 5 0 7 259
2007-09-23 1 2 0 3 272
2007-09-24 0 8 0 4 304
2007-09-25 1 3 0 3 367
2007-09-26 1 5 0 4 246
2007-09-27 0 2 0 4 261
2007-09-28 0 4 0 4 291
2007-09-29 2 11 0 4 373
2007-09-30 0 4 0 0 158
Août 2007 23 226 2 6 9096
Juillet 2007 18 127 1 4 10165
Juin 2007 25 309 2 6 13196
Mai 2007 30 315 8 7 11830
Avril 2007 44 428 13 9 13382
Mars 2007 52 176 13 4 1693
2007-03-08 5 5 1 2 0
2007-03-09 4 10 2 3 0
2007-03-10 0 0 0 1 0
2007-03-11 0 2 0 2 0
2007-03-12 1 5 0 2 0
2007-03-13 18 26 0 2 0
2007-03-14 4 7 0 3 0
2007-03-15 0 1 0 1 0
2007-03-16 0 1 0 2 0
2007-03-17 0 0 0 1 0
2007-03-18 0 0 2 2 0
2007-03-19 1 4 1 2 0
2007-03-20 3 10 2 2 0
2007-03-21 1 3 0 1 0
2007-03-22 1 13 1 3 0
2007-03-23 4 12 1 4 0
2007-03-24 1 2 1 1 0
2007-03-25 0 2 0 2 0
2007-03-26 4 12 1 2 223
2007-03-27 2 30 0 3 507
2007-03-28 0 13 0 3 452
2007-03-29 1 6 0 2 100
2007-03-30 0 3 0 3 131
2007-03-31 2 9 1 3 280